Cordova, SC

10:40 PM EDT on August 31, 2016 (GMT -0400)
Orangeburg Municipal

Weather History for KOGB - April, 2013

Change the Weather History Date:

Friday, April 19, 2013

  Actual Average Record
Temperature  
Mean Temperature 70 °F 64 °F  
Max Temperature 85 °F 77 °F 91 °F (1967)
Min Temperature 55 °F 51 °F 31 °F (1983)
Degree Days  
Heating Degree Days 0 3  
Month to date heating degree days 56 85  
Since 1 July heating degree days 2123 2294  
Cooling Degree Days 5 2  
Month to date cooling degree days 53 33  
Year to date cooling degree days 79 53  
Growing Degree Days 22 (Base 50)    
Moisture  
Dew Point 65 °F    
Average Humidity 85    
Maximum Humidity 93    
Minimum Humidity 51    
Precipitation  
Precipitation 0.91 in 0.10 in 1.28 in (2015)
Month to date precipitation 2.17 1.96  
Year to date precipitation 13.39 13.51  
Sea Level Pressure  
Sea Level Pressure 29.90 in    
Wind  
Wind Speed 9 mph (SSW)    
Max Wind Speed 37 mph    
Max Gust Speed 51 mph    
Visibility 8 miles    
Events Fog , Rain    
T = Trace of Precipitation, MM = Missing Value Source: NWS Daily Summary

Daily Weather History Graph

Daily Weather History Graph

Search for Another Location

Airport or City:

Trip Planner

Search our weather history database for the weather conditions in past years. The results will help you decide how hot, cold, wet, or windy it might be!

Date:

Astronomy

Apr. 19, 2013 Rise Set
Actual Time 6:48 AM EDT 7:57 PM EDT
Civil Twilight 6:22 AM EDT 8:23 PM EDT
Nautical Twilight 5:51 AM EDT 8:53 PM EDT
Astronomical Twilight 5:19 AM EDT 9:25 PM EDT
Moon 1:58 PM EDT (4/19) 2:43 AM EDT (4/19)
Length of Visible Light 14h 00m
Length of Day
13h 09m
First Quarter, 61% of the Moon is Illuminated
Apr 19
First Quarter
Apr 25
Full
May 2
Last Quarter
May 9
New
May 18
First Quarter

Hourly Weather History & Observations

Time (EDT) Temp. Heat Index Dew Point Humidity Pressure Visibility Wind Dir Wind Speed Gust Speed Precip Events Conditions
12:53 AM 66.9 °F - 64.0 °F 90% 30.01 in 10.0 mi SE 3.5 mph - N/A   Scattered Clouds
1:53 AM 66.0 °F - 64.0 °F 93% 29.99 in 10.0 mi Calm Calm - N/A   Scattered Clouds
2:53 AM 66.9 °F - 64.0 °F 90% 29.96 in 10.0 mi Calm Calm - N/A   Partly Cloudy
3:53 AM 66.9 °F - 64.9 °F 93% 29.95 in 10.0 mi South 3.5 mph - N/A   Clear
4:53 AM 66.9 °F - 64.9 °F 93% 29.94 in 10.0 mi South 4.6 mph - N/A   Clear
5:18 AM 66.2 °F - 64.4 °F 94% 29.94 in 10.0 mi South 4.6 mph - N/A   Mostly Cloudy
5:39 AM 66.2 °F - 64.4 °F 94% 29.93 in 10.0 mi Variable 4.6 mph - N/A   Mostly Cloudy
5:46 AM 66.2 °F - 64.4 °F 94% 29.93 in 10.0 mi South 4.6 mph - N/A   Mostly Cloudy
5:53 AM 66.9 °F - 64.9 °F 93% 29.93 in 10.0 mi Variable 4.6 mph - N/A   Mostly Cloudy
6:53 AM 68.0 °F - 66.0 °F 93% 29.94 in 10.0 mi SSW 5.8 mph - N/A   Overcast
7:03 AM 68.0 °F - 66.2 °F 94% 29.95 in 10.0 mi SSW 6.9 mph - N/A   Overcast
7:53 AM 69.1 °F - 66.9 °F 93% 29.95 in 9.0 mi South 8.1 mph - N/A   Overcast
8:53 AM 72.0 °F - 68.0 °F 87% 29.96 in 10.0 mi SSW 9.2 mph - N/A   Overcast
9:07 AM 71.6 °F - 68.0 °F 88% 29.96 in 10.0 mi SSW 11.5 mph - N/A   Overcast
9:53 AM 75.9 °F - 69.1 °F 79% 29.95 in 10.0 mi SSW 10.4 mph - N/A   Overcast
10:53 AM 79.0 °F - 69.1 °F 72% 29.93 in 10.0 mi South 13.8 mph 19.6 mph N/A   Scattered Clouds
11:53 AM 81.0 °F 83.3 °F 66.9 °F 62% 29.91 in 10.0 mi SSW 12.7 mph 23.0 mph N/A   Mostly Cloudy
12:53 PM 82.0 °F 84.5 °F 66.9 °F 60% 29.88 in 10.0 mi SSW 16.1 mph 26.5 mph N/A   Scattered Clouds
1:53 PM 84.0 °F 86.5 °F 66.9 °F 56% 29.85 in 10.0 mi SSW 13.8 mph 23.0 mph N/A   Scattered Clouds
2:53 PM 84.0 °F 85.4 °F 64.0 °F 51% 29.84 in 10.0 mi SSW 18.4 mph 29.9 mph N/A   Scattered Clouds
3:53 PM 84.0 °F 86.3 °F 66.0 °F 55% 29.81 in 10.0 mi SSW 8.1 mph 18.4 mph N/A   Partly Cloudy
4:53 PM 82.0 °F 84.5 °F 66.9 °F 60% 29.81 in 10.0 mi SSW 8.1 mph - N/A   Mostly Cloudy
5:08 PM 71.6 °F - 64.4 °F 78% 29.85 in 2.0 mi WSW 19.6 mph 50.6 mph 0.07 in Rain Heavy Rain
5:11 PM 69.8 °F - 64.4 °F 83% 29.84 in 0.8 mi West 17.3 mph 50.6 mph 0.18 in Rain Heavy Rain
5:21 PM 66.2 °F - 64.4 °F 94% 29.82 in 0.5 mi SW 18.4 mph 34.5 mph 0.52 in Fog , Rain Heavy Rain
5:28 PM 68.0 °F - 64.4 °F 88% 29.81 in 1.2 mi South 9.2 mph 28.8 mph 0.53 in Rain Light Rain
5:30 PM 68.0 °F - 64.4 °F 88% 29.81 in 2.5 mi South 8.1 mph - 0.53 in Rain Light Rain
5:37 PM 68.0 °F - 64.4 °F 88% 29.83 in 10.0 mi South 9.2 mph - 0.53 in Rain Light Rain
5:53 PM 69.1 °F - 64.0 °F 84% 29.88 in 9.0 mi SSW 10.4 mph - 0.53 in Rain Rain
6:53 PM 69.1 °F - 66.0 °F 90% 29.88 in 5.0 mi SSW 6.9 mph - 0.11 in Rain Rain
7:53 PM 68.0 °F - 66.0 °F 93% 29.89 in 6.0 mi SSW 6.9 mph - 0.06 in Rain Light Rain
8:20 PM 68.0 °F - 66.2 °F 94% 29.90 in 9.0 mi SSW 5.8 mph - 0.00 in Rain Light Rain
8:37 PM 68.0 °F - 66.2 °F 94% 29.91 in 8.0 mi SSW 6.9 mph - 0.01 in Rain Light Rain
8:44 PM 68.0 °F - 66.2 °F 94% 29.90 in 8.0 mi SW 6.9 mph - 0.01 in Rain Light Rain
8:53 PM 68.0 °F - 66.9 °F 96% 29.89 in 4.0 mi SW 5.8 mph - 0.04 in Rain Rain
9:03 PM 68.0 °F - 66.2 °F 94% 29.88 in 8.0 mi WSW 8.1 mph - 0.01 in Rain Light Rain
9:53 PM 66.9 °F - 64.0 °F 90% 29.88 in 10.0 mi SW 8.1 mph - 0.02 in   Overcast
10:53 PM 61.0 °F - 57.0 °F 87% 29.94 in 10.0 mi West 10.4 mph - 0.03 in Rain Light Rain
11:53 PM 57.0 °F - 51.1 °F 81% 29.96 in 9.0 mi West 12.7 mph - 0.08 in Rain Light Rain